Wind_Speed
23 24 26 27 27 28 27 27 27 27 29 31 32 31 30 32 33 34 35 37 37 37 38 39 39 40 41 41 41 42 42 43 45 45 44 44 44 44 43 42 43 43 43 43
25 26 27 29 29 29 29 28 27 28 30 33 32 32 31 32 34 34 35 36 37 37 38 38 40 40 41 41 42 42 43 44 45 45 45 45 45 45 44 44 44 44 45 45
27 27 28 29 29 30 29 29 28 29 30 32 33 32 30 31 33 34 34 35 37 37 38 38 39 40 40 40 41 41 41 43 44 44 45 46 46 47 46 45 45 45 46 46
27 27 28 29 30 31 30 30 31 31 32 32 33 34 30 31 32 33 33 34 35 36 37 38 39 40 40 40 40 40 41 42 42 44 45 45 46 47 47 46 46 47 47 47
28 28 29 29 29 30 31 31 32 32 34 35 32 35 31 30 31 33 34 34 35 36 37 38 40 40 41 41 41 41 41 41 41 42 44 45 46 47 48 48 48 48 48 48
29 30 30 30 30 31 31 32 33 33 35 36 33 34 31 29 30 32 35 35 36 37 37 38 39 40 40 41 42 42 41 41 42 43 43 44 45 47 48 49 50 49 49 49
29 29 30 31 30 30 30 31 33 34 35 35 33 34 31 29 31 32 33 35 35 36 37 38 39 40 40 41 42 42 42 42 42 43 44 44 46 48 48 49 50 51 50 51
31 30 31 31 30 30 30 31 32 34 35 35 33 34 31 30 31 32 33 34 35 36 37 38 39 40 41 41 42 43 44 43 44 45 45 46 46 47 48 49 49 50 50 50
32 31 31 31 31 31 31 31 32 34 36 36 35 33 31 30 30 31 33 34 36 37 38 38 39 40 41 42 42 42 44 45 45 46 46 46 46 47 48 49 49 50 50 51
32 32 30 30 31 31 31 32 32 33 36 37 36 34 31 30 30 32 33 34 35 37 38 39 39 39 41 41 41 42 44 44 45 45 46 47 48 49 49 50 49 50 51 51
33 33 32 31 31 31 31 31 33 34 35 36 37 34 32 32 32 33 34 35 36 38 39 40 40 41 41 41 42 43 43 43 44 45 46 47 48 50 51 51 51 51 52 53
34 35 33 32 32 32 32 32 33 35 36 37 38 35 31 33 33 35 37 37 38 39 39 40 41 41 41 42 42 42 43 43 43 45 46 47 48 49 50 51 51 52 53 53
35 35 35 33 33 33 33 33 34 35 38 38 39 37 33 34 36 37 38 39 39 40 40 40 40 40 41 42 43 43 44 45 45 45 45 46 47 48 49 50 51 52 53 53
37 37 36 34 33 34 34 34 35 37 39 41 40 39 35 36 37 37 38 39 39 40 41 41 40 40 41 42 42 44 45 46 47 47 46 46 47 48 50 50 51 52 53 53
38 38 37 36 35 36 36 36 36 39 40 43 41 40 37 38 39 38 38 39 40 40 40 41 41 42 42 43 44 44 45 46 47 48 47 47 47 48 49 50 51 52 53 53
39 39 39 38 37 38 39 37 37 39 40 42 43 41 38 40 41 40 40 40 40 40 40 40 41 41 42 42 43 44 44 45 47 48 48 48 49 49 49 50 50 50 51 52
40 40 41 40 38 40 40 36 37 39 39 41 42 40 39 40 41 42 41 41 41 41 41 41 41 41 42 42 42 43 43 44 45 47 48 48 49 50 50 49 49 48 49 51
40 40 41 41 41 42 38 37 38 39 39 40 41 40 40 41 41 42 42 42 42 43 43 43 43 43 42 43 43 43 43 44 45 46 48 49 49 50 49 48 47 47 48 49
38 39 40 41 42 43 39 37 38 40 39 38 40 40 41 41 42 42 42 42 42 42 42 42 43 43 42 42 43 43 43 44 45 45 46 47 48 47 47 47 47 47 47 47
37 38 40 41 43 43 39 38 39 41 39 37 39 40 40 41 41 39 40 41 41 41 41 41 42 42 42 42 42 43 44 44 43 43 44 45 45 43 43 44 45 46 46 45
38 39 40 40 42 42 38 39 40 40 39 39 40 40 40 41 40 39 39 39 40 41 41 42 43 43 42 42 42 42 42 43 42 41 42 42 42 42 41 41 42 42 42 43
39 40 40 41 43 41 39 40 39 39 39 39 40 40 40 40 39 39 39 40 40 41 42 43 43 43 42 41 41 41 41 40 40 40 40 41 41 40 40 40 40 40 40 41
39 39 40 42 41 40 41 41 40 40 40 39 39 40 40 39 39 40 40 40 40 41 42 42 42 40 40 39 40 39 39 39 39 39 38 38 39 40 39 38 38 38 38 38
41 40 42 42 41 41 41 41 40 40 40 40 40 40 40 39 39 40 41 41 41 41 40 40 39 38 38 38 38 38 37 37 37 36 36 36 36 37 38 37 37 36 36 37
40 40 42 43 41 42 41 40 39 40 40 40 41 41 41 41 40 41 41 40 40 39 39 39 38 37 37 37 37 35 35 35 35 34 33 33 34 34 34 35 35 34 35 36
37 40 42 42 40 42 41 40 41 40 40 41 41 41 41 41 41 41 41 40 39 38 38 38 37 36 36 35 34 34 33 33 33 33 33 32 32 33 33 33 33 33 34 35
Wind_Direction
276 278 277 275 273 272 272 276 276 272 267 266 264 263 262 262 261 260 261 260 258 258 258 258 258 258 258 258 258 258 257 257 256 256 255 255 254 253 253 253 253 253 253 253
276 278 279 275 274 275 276 278 277 273 270 270 268 267 266 264 264 263 262 260 258 259 259 259 259 259 259 260 260 259 259 258 257 256 255 254 253 252 251 252 253 253 253 254
275 279 278 276 275 277 278 278 279 276 274 273 272 271 268 266 264 262 262 261 260 260 260 259 260 260 260 261 261 262 261 260 258 256 254 252 252 251 250 251 253 253 253 253
277 278 278 277 276 279 279 277 279 276 275 276 276 276 271 269 264 262 261 261 261 261 261 261 261 261 261 261 261 263 263 261 259 257 254 252 251 251 251 251 252 252 253 253
278 278 278 279 279 278 278 277 278 276 275 277 277 277 275 272 267 264 264 264 263 263 263 263 263 263 262 263 264 264 264 262 260 258 255 252 252 252 252 252 253 253 253 254
277 277 277 277 278 278 278 278 277 277 276 275 276 277 277 275 271 267 266 266 266 265 265 264 264 264 263 264 265 265 263 262 260 258 256 254 254 254 254 254 255 254 254 254
275 277 276 277 277 277 278 278 278 277 277 277 278 277 278 277 274 271 270 269 268 268 267 266 266 265 265 265 265 264 263 263 262 261 258 256 255 255 254 255 255 255 254 254
276 278 279 278 277 277 276 276 278 279 279 279 278 278 278 278 276 274 273 273 271 270 269 267 268 267 266 266 265 265 264 265 264 262 260 256 256 256 255 255 255 255 254 254
281 281 280 278 276 276 276 276 277 278 279 280 280 281 278 279 277 276 276 274 273 272 272 270 269 269 267 265 265 265 265 265 264 263 260 257 256 257 255 254 255 255 254 254
281 281 280 278 275 274 275 276 277 278 281 282 282 282 283 281 280 278 278 277 276 275 274 273 273 272 268 267 267 266 266 264 263 262 261 259 257 256 255 254 255 256 254 254
278 279 279 276 274 274 274 274 275 276 279 282 284 284 284 284 283 280 279 279 278 276 275 274 274 272 269 269 267 266 265 264 264 262 261 260 259 259 257 255 255 255 255 255
276 276 275 274 273 273 273 274 274 275 277 279 281 283 285 285 283 281 280 280 279 278 276 276 276 274 272 270 268 267 265 264 265 264 263 261 261 260 258 257 256 256 255 256
274 275 274 273 273 273 273 274 274 274 276 277 280 284 285 284 283 282 280 279 279 278 278 277 277 276 274 272 269 268 266 265 265 264 263 263 262 260 260 260 260 258 256 256
273 274 274 274 274 273 273 273 273 273 275 277 279 282 282 282 281 280 279 278 278 277 278 279 278 277 275 273 270 268 267 267 266 264 263 263 263 262 262 262 262 260 258 257
272 273 273 272 273 272 273 273 274 274 276 278 280 281 282 280 278 278 278 278 277 277 278 278 278 277 276 275 272 270 268 267 266 264 263 263 263 263 263 263 262 261 260 259
272 274 273 273 273 273 273 275 277 277 277 278 280 280 281 279 278 278 278 279 279 278 279 279 279 278 277 276 274 272 270 269 267 266 265 264 264 264 265 263 262 261 260 259
272 274 274 274 273 272 275 278 278 278 278 279 279 280 279 279 279 279 279 278 278 279 280 279 279 279 278 276 275 273 271 270 269 267 266 265 265 265 265 264 262 262 260 259
274 274 274 274 273 273 277 278 279 278 278 279 279 279 278 280 280 280 281 280 279 278 279 280 280 280 280 278 277 275 273 272 271 269 267 266 266 265 265 265 262 261 261 260
274 274 275 276 276 277 278 282 281 280 279 280 280 279 279 279 280 281 281 281 281 280 279 280 281 281 281 279 278 277 276 275 273 271 269 267 267 266 265 264 263 262 262 261
273 273 274 276 277 279 282 283 282 282 283 282 280 280 280 280 280 280 279 280 280 281 281 280 281 281 281 279 278 277 277 275 274 272 271 268 267 266 264 264 262 262 262 262
271 272 273 275 277 280 283 283 283 284 286 284 283 282 281 280 280 280 279 280 281 281 281 281 281 281 281 279 278 278 278 276 274 272 271 269 267 265 265 266 265 263 263 262
272 272 273 274 276 281 283 282 282 284 283 284 284 283 283 281 280 280 281 281 283 283 283 283 282 282 281 279 278 278 278 277 274 273 272 270 268 267 266 266 266 264 263 263
273 274 273 274 277 280 281 281 282 282 283 283 283 283 283 283 283 282 283 284 284 286 286 286 285 283 281 280 279 278 278 278 276 274 272 269 267 266 265 265 265 264 263 263
272 273 273 275 277 278 278 279 279 279 280 282 283 284 284 284 284 284 284 285 285 286 285 285 285 283 282 281 280 279 278 277 277 275 272 269 268 265 263 263 263 264 263 263
272 273 275 276 278 277 277 277 277 278 279 281 283 284 284 283 284 284 285 286 286 284 283 284 283 283 283 282 280 279 278 277 276 275 273 270 267 265 264 263 263 264 264 264
274 274 274 276 276 276 276 276 276 278 280 281 282 283 284 283 284 284 285 285 284 282 282 282 282 283 283 283 281 279 278 277 276 274 273 271 269 266 265 264 264 264 266 266
Height
5721 5722 5720 5719 5718 5717 5716 5716 5716 5716 5715 5714 5715 5717 5718 5718 5717 5718 5719 5720 5722 5724 5725 5726 5726 5727 5728 5729 5731 5732 5734 5735 5736 5738 5739 5741 5742 5744 5746 5747 5749 5750 5752 5754
5716 5715 5714 5712 5712 5711 5710 5710 5710 5710 5708 5707 5707 5709 5710 5709 5709 5709 5710 5710 5712 5714 5715 5715 5716 5716 5717 5718 5719 5721 5722 5723 5724 5725 5727 5729 5731 5733 5735 5737 5739 5740 5742 5744
5709 5709 5707 5706 5705 5704 5704 5703 5702 5702 5701 5700 5699 5701 5702 5702 5701 5701 5701 5702 5703 5704 5705 5705 5705 5706 5707 5708 5709 5709 5710 5711 5712 5712 5714 5716 5719 5721 5723 5726 5728 5729 5731 5732
5702 5702 5701 5700 5699 5697 5697 5696 5695 5694 5693 5693 5692 5690 5695 5693 5692 5692 5692 5693 5694 5695 5695 5696 5696 5696 5697 5697 5697 5698 5698 5699 5700 5700 5701 5703 5706 5709 5712 5714 5716 5718 5719 5721
5695 5694 5694 5693 5693 5691 5690 5689 5688 5686 5685 5684 5684 5682 5686 5684 5684 5684 5684 5684 5685 5685 5686 5686 5686 5686 5687 5687 5686 5687 5687 5687 5688 5688 5689 5691 5694 5697 5700 5702 5704 5706 5708 5710
5688 5687 5686 5686 5685 5683 5682 5682 5680 5678 5677 5677 5677 5675 5676 5676 5676 5675 5675 5675 5675 5675 5676 5675 5675 5675 5675 5675 5675 5675 5675 5676 5676 5676 5677 5679 5682 5685 5687 5689 5691 5693 5695 5697
5681 5680 5679 5678 5677 5676 5675 5674 5671 5669 5668 5669 5668 5666 5669 5668 5666 5665 5665 5665 5665 5665 5665 5665 5664 5664 5664 5664 5664 5664 5664 5665 5665 5665 5666 5668 5669 5671 5673 5676 5678 5680 5682 5684
5672 5673 5671 5669 5669 5668 5666 5665 5664 5661 5659 5659 5659 5658 5661 5660 5657 5656 5656 5655 5655 5655 5654 5654 5653 5653 5653 5653 5653 5653 5653 5653 5653 5653 5654 5655 5656 5658 5660 5662 5664 5666 5669 5671
5664 5665 5664 5662 5660 5660 5658 5657 5656 5653 5650 5649 5650 5650 5652 5651 5649 5648 5647 5646 5645 5645 5644 5643 5642 5641 5641 5641 5641 5641 5641 5641 5641 5640 5641 5642 5642 5644 5646 5648 5649 5652 5654 5657
5655 5656 5656 5655 5653 5651 5651 5649 5648 5645 5642 5640 5641 5641 5642 5641 5640 5639 5638 5636 5635 5634 5633 5632 5632 5631 5630 5630 5629 5629 5628 5628 5628 5628 5628 5629 5629 5631 5632 5634 5636 5638 5641 5642
5646 5646 5647 5646 5645 5644 5643 5641 5639 5637 5635 5632 5630 5635 5634 5633 5631 5629 5628 5625 5624 5623 5622 5621 5621 5619 5618 5618 5617 5617 5616 5616 5616 5616 5616 5616 5617 5618 5619 5620 5622 5624 5626 5628
5637 5637 5637 5637 5636 5634 5634 5633 5631 5629 5627 5624 5621 5626 5626 5624 5621 5619 5617 5615 5614 5612 5611 5610 5609 5608 5607 5606 5605 5604 5604 5604 5603 5603 5603 5603 5604 5604 5606 5607 5608 5610 5611 5613
5628 5627 5626 5627 5629 5626 5625 5624 5622 5619 5617 5615 5613 5617 5617 5614 5611 5609 5606 5605 5603 5601 5600 5598 5597 5596 5594 5594 5593 5592 5591 5591 5591 5590 5590 5590 5591 5591 5592 5593 5594 5595 5597 5598
5617 5617 5618 5618 5617 5616 5615 5614 5612 5609 5607 5605 5605 5606 5607 5603 5600 5598 5596 5594 5592 5590 5589 5587 5586 5584 5583 5581 5580 5579 5578 5578 5577 5577 5577 5577 5577 5578 5579 5579 5580 5581 5582 5583
5607 5607 5607 5608 5607 5605 5604 5604 5602 5600 5598 5595 5596 5595 5596 5592 5589 5587 5585 5583 5581 5580 5578 5576 5574 5572 5570 5568 5567 5566 5565 5564 5564 5563 5564 5564 5564 5564 5564 5564 5565 5566 5567 5568
5596 5596 5596 5597 5596 5594 5593 5594 5592 5590 5588 5585 5583 5584 5584 5579 5577 5575 5573 5571 5569 5568 5566 5564 5562 5560 5557 5555 5554 5553 5552 5551 5550 5550 5549 5549 5550 5550 5550 5550 5550 5551 5552 5553
5587 5586 5585 5585 5585 5581 5583 5585 5582 5579 5578 5575 5572 5573 5571 5568 5566 5563 5561 5559 5557 5555 5554 5552 5550 5547 5545 5542 5540 5539 5538 5537 5537 5536 5535 5535 5535 5535 5535 5535 5535 5536 5537 5538
5576 5575 5572 5572 5572 5571 5577 5574 5571 5568 5567 5564 5561 5560 5558 5556 5554 5552 5550 5547 5545 5543 5541 5539 5537 5534 5532 5530 5528 5526 5525 5523 5522 5521 5521 5520 5520 5520 5520 5520 5521 5522 5523 5524
5566 5564 5562 5560 5558 5559 5564 5563 5559 5555 5555 5554 5549 5548 5546 5544 5542 5541 5538 5535 5532 5530 5528 5526 5524 5522 5520 5517 5515 5513 5512 5511 5509 5508 5507 5506 5506 5506 5506 5507 5507 5508 5509 5510
5555 5553 5552 5550 5547 5547 5554 5551 5546 5543 5543 5542 5538 5535 5534 5532 5530 5531 5527 5524 5521 5519 5516 5514 5512 5509 5507 5505 5503 5501 5499 5498 5497 5495 5494 5493 5493 5493 5493 5494 5494 5495 5496 5497
5544 5542 5541 5539 5536 5536 5542 5538 5534 5533 5533 5529 5526 5524 5522 5520 5518 5517 5515 5513 5510 5507 5505 5502 5500 5497 5495 5493 5491 5489 5487 5485 5484 5483 5482 5481 5481 5481 5481 5482 5482 5482 5483 5485
5532 5531 5530 5528 5526 5530 5529 5525 5523 5522 5519 5516 5514 5512 5510 5508 5506 5505 5503 5501 5498 5495 5493 5490 5487 5485 5483 5480 5478 5477 5475 5473 5472 5471 5470 5470 5470 5469 5470 5470 5470 5471 5471 5473
5521 5521 5519 5518 5519 5518 5515 5512 5511 5509 5507 5505 5502 5501 5498 5496 5494 5493 5491 5489 5486 5483 5481 5478 5475 5473 5471 5468 5466 5465 5464 5462 5460 5459 5459 5459 5459 5459 5459 5459 5459 5460 5461 5461
5509 5508 5506 5505 5506 5505 5503 5501 5499 5497 5495 5492 5490 5489 5487 5484 5483 5481 5479 5477 5474 5472 5469 5466 5464 5462 5460 5457 5455 5453 5452 5450 5449 5448 5448 5448 5448 5448 5448 5448 5449 5449 5450 5451
5498 5496 5493 5492 5493 5491 5491 5489 5488 5485 5483 5481 5479 5477 5475 5473 5471 5469 5466 5464 5462 5459 5457 5455 5453 5451 5449 5447 5445 5443 5441 5440 5439 5438 5438 5437 5437 5437 5437 5438 5438 5439 5440 5440
5487 5484 5481 5480 5481 5478 5478 5477 5475 5473 5472 5470 5468 5466 5463 5461 5459 5457 5454 5452 5450 5447 5445 5443 5441 5440 5438 5436 5434 5433 5431 5430 5429 5428 5428 5428 5427 5427 5427 5428 5428 5428 5429 5430